Voltar ao catálogo

STARLINK-37757

AtivoComunicaçõesVLEO
NORAD 69244·PAYLOAD·🇺🇸 United States

Lançado May 29, 2026 de Cape Canaveral Space Force Station

Loading…

Próximas Passagens (próximas 24 horas)

TLE

AtualizadoSource: CelesTrak SupGP

Época: Sep 14, 2026, 21:10 UTC

1 69244C 26117G   26257.88243056 -.00010155  00000+0 -29984-3 0  2575
2 69244  53.1567 179.9647 0001188 104.0399 311.1373 15.34415849    15

Acompanhe STARLINK-37757 em tempo real com AllMySat

Download on the App Store